Tracking 31027 objects as of 19-Jul-2025
HD Live streaming from Space Station
objects crossing your sky now

SL-14 DEB

Track SL-14 DEB now!
10-day predictions


NORAD ID: 19232
Int'l Code: 1978-100AB
Perigee: 1,681.3 km
Apogee: 1,991.8 km
Inclination: 82.3 °
Period: 123.3 minutes
Semi major axis: 8207 km
RCS: 0.0463 m2 (small)
Launch date: October 26, 1978
Source: Commonwealth of Independent States (former USSR) (CIS)
Launch site: PLESETSK MISSILE AND SPACE COMPLEX (PKMTR)

Note: This is SATELLITE DEBRIS
Your satellite tracking list
SL-8 DEB
Track 1 satellite(s)




NASA's NSSDC Master Catalog

Two Line Element Set (TLE):
1 19232U 78100AB  25199.64936491  .00000056  00000-0  86977-3 0  9992
2 19232  82.3311  90.3561 0189151 237.8855 148.4184 11.67567583584257
Source of the keplerian elements: AFSPC